Location: Newark
(33.6333°S, 78.8500°W)
Time: 14:28:29
(UTC+00:00)

Tiros 1 despin weight - Pass Details

Date: 29 September 2019
Orbit: 594 x 643 km, 48.2° (Epoch: 17 October)

Event Time Altitude Azimuth Distance (km) Brightness Sun altitude
Rises 07:29:31 0° 227° (SW) 2,924 - -40.6°
Reaches altitude 10° 07:32:00 10° 217° (SW) 2,022 - -40.2°
Maximum altitude 07:36:18 35° 151° (SSE) 1,028 - -39.5°
Drops below altitude 10° 07:40:36 10° 84° (E) 2,032 - -38.8°
Exits shadow 07:41:19 - 81° (E) 2,283 ? -38.7°
Sets 07:43:06 0° 75° (ENE) 2,942 ? -38.4°
